owner,sensor,date,latitude,longitude,vertical_datum,mass_concentration_of_oxygen_in_sea_water,qcFlag 
DISL,ioos:station:DISL:MHPA:1,2009-02-01T00:00:00Z,30.6671,-87.9365,3.124,13.27,1111122 
DISL,ioos:station:DISL:MHPA:1,2009-02-01T00:30:00Z,30.6671,-87.9365,3.078,13.27,1111122 
DISL,ioos:station:DISL:MHPA:1,2009-02-01T01:00:00Z,30.6671,-87.9365,2.976,12.73,1111122 
DISL,ioos:station:DISL:MHPA:1,2009-02-01T01:30:00Z,30.6671,-87.9365,2.868,12.57,1111122 
DISL,ioos:station:DISL:MHPA:1,2009-02-01T02:00:00Z,30.6671,-87.9365,2.738,12.5,1111122 
DISL,ioos:station:DISL:MHPA:1,2009-02-01T02:30:00Z,30.6671,-87.9365,2.62,12.26,1111122 
DISL,ioos:station:DISL:MHPA:1,2009-02-01T03:00:00Z,30.6671,-87.9365,2.513,12.54,1111122 
DISL,ioos:station:DISL:MHPA:1,2009-02-01T03:30:00Z,30.6671,-87.9365,2.405,11.96,1111122 
DISL,ioos:station:DISL:MHPA:1,2009-02-01T04:00:00Z,30.6671,-87.9365,2.328,11.41,1111122 
DISL,ioos:station:DISL:MHPA:1,2009-02-01T04:30:00Z,30.6671,-87.9365,2.283,11.93,1111122 
DISL,ioos:station:DISL:MHPA:1,2009-02-01T05:00:00Z,30.6671,-87.9365,2.259,12.27,1111122 
DISL,ioos:station:DISL:MHPA:1,2009-02-01T05:30:00Z,30.6671,-87.9365,2.24,12.56,1111122 
DISL,ioos:station:DISL:MHPA:1,2009-02-01T06:00:00Z,30.6671,-87.9365,2.246,12.77,1111122 
DISL,ioos:station:DISL:MHPA:1,2009-02-01T06:30:00Z,30.6671,-87.9365,2.251,12.64,1111122 
DISL,ioos:station:DISL:MHPA:1,2009-02-01T07:00:00Z,30.6671,-87.9365,2.237,12.49,1111122 
DISL,ioos:station:DISL:MHPA:1,2009-02-01T07:30:00Z,30.6671,-87.9365,2.224,12.37,1111122 
DISL,ioos:station:DISL:MHPA:1,2009-02-01T08:00:00Z,30.6671,-87.9365,2.239,12.12,1111122 
DISL,ioos:station:DISL:MHPA:1,2009-02-01T08:30:00Z,30.6671,-87.9365,2.239,11.97,1111122 
DISL,ioos:station:DISL:MHPA:1,2009-02-01T09:00:00Z,30.6671,-87.9365,2.221,12.08,1111122 
DISL,ioos:station:DISL:MHPA:1,2009-02-01T09:30:00Z,30.6671,-87.9365,2.229,11.95,1111122 
DISL,ioos:station:DISL:MHPA:1,2009-02-01T10:00:00Z,30.6671,-87.9365,2.28,12.35,1111122 
DISL,ioos:station:DISL:MHPA:1,2009-02-01T10:30:00Z,30.6671,-87.9365,2.312,12.03,1111122 
DISL,ioos:station:DISL:MHPA:1,2009-02-01T11:00:00Z,30.6671,-87.9365,2.368,11.48,1111122 
DISL,ioos:station:DISL:MHPA:1,2009-02-01T11:30:00Z,30.6671,-87.9365,2.446,10.99,1111122 
DISL,ioos:station:DISL:MHPA:1,2009-02-01T12:00:00Z,30.6671,-87.9365,2.452,11.75,1111122 
DISL,ioos:station:DISL:MHPA:1,2009-02-01T12:30:00Z,30.6671,-87.9365,2.467,11.47,1111122 
DISL,ioos:station:DISL:MHPA:1,2009-02-01T13:00:00Z,30.6671,-87.9365,2.49,11.53,1111122 
DISL,ioos:station:DISL:MHPA:1,2009-02-01T13:30:00Z,30.6671,-87.9365,2.469,11.73,1111122 
DISL,ioos:station:DISL:MHPA:1,2009-02-01T14:00:00Z,30.6671,-87.9365,2.5,11.73,1111122 
DISL,ioos:station:DISL:MHPA:1,2009-02-01T14:30:00Z,30.6671,-87.9365,2.533,11.86,1111122 
DISL,ioos:station:DISL:MHPA:1,2009-02-01T15:00:00Z,30.6671,-87.9365,2.517,12.0,1111122 
DISL,ioos:station:DISL:MHPA:1,2009-02-01T15:30:00Z,30.6671,-87.9365,2.552,12.03,1111122 
DISL,ioos:station:DISL:MHPA:1,2009-02-01T16:00:00Z,30.6671,-87.9365,2.635,11.98,1111122 
DISL,ioos:station:DISL:MHPA:1,2009-02-01T16:30:00Z,30.6671,-87.9365,2.759,11.85,1111122 
DISL,ioos:station:DISL:MHPA:1,2009-02-01T17:00:00Z,30.6671,-87.9365,2.855,11.85,1111122 
DISL,ioos:station:DISL:MHPA:1,2009-02-01T17:30:00Z,30.6671,-87.9365,2.973,11.85,1111122 
DISL,ioos:station:DISL:MHPA:1,2009-02-01T18:00:00Z,30.6671,-87.9365,3.096,11.87,1111122 
DISL,ioos:station:DISL:MHPA:1,2009-02-01T18:30:00Z,30.6671,-87.9365,3.21,11.95,1111122 
DISL,ioos:station:DISL:MHPA:1,2009-02-01T19:00:00Z,30.6671,-87.9365,3.34,11.97,1111122 
DISL,ioos:station:DISL:MHPA:1,2009-02-01T19:30:00Z,30.6671,-87.9365,3.507,12.36,1111122 
DISL,ioos:station:DISL:MHPA:1,2009-02-01T20:00:00Z,30.6671,-87.9365,3.542,12.26,1111122 
DISL,ioos:station:DISL:MHPA:1,2009-02-01T20:30:00Z,30.6671,-87.9365,3.543,12.15,1111122 
DISL,ioos:station:DISL:MHPA:1,2009-02-01T21:00:00Z,30.6671,-87.9365,3.611,11.85,1111122 
DISL,ioos:station:DISL:MHPA:1,2009-02-01T21:30:00Z,30.6671,-87.9365,3.661,11.77,1111122 
DISL,ioos:station:DISL:MHPA:1,2009-02-01T22:00:00Z,30.6671,-87.9365,3.652,12.0,1111122 
DISL,ioos:station:DISL:MHPA:1,2009-02-01T22:30:00Z,30.6671,-87.9365,3.704,12.55,1111122 
DISL,ioos:station:DISL:MHPA:1,2009-02-01T23:00:00Z,30.6671,-87.9365,3.743,12.56,1111122 
DISL,ioos:station:DISL:MHPA:1,2009-02-01T23:30:00Z,30.6671,-87.9365,3.706,12.35,1111122 
DISL,ioos:station:DISL:MHPA:1,2009-02-02T00:00:00Z,30.6671,-87.9365,3.671,11.82,1111122 
DISL,ioos:station:DISL:MHPA:1,2009-02-02T00:30:00Z,30.6671,-87.9365,3.648,11.79,1111122 
DISL,ioos:station:DISL:MHPA:1,2009-02-02T01:00:00Z,30.6671,-87.9365,3.507,12.27,1111122 
DISL,ioos:station:DISL:MHPA:1,2009-02-02T01:30:00Z,30.6671,-87.9365,3.396,12.38,1111122 
DISL,ioos:station:DISL:MHPA:1,2009-02-02T02:00:00Z,30.6671,-87.9365,3.284,12.23,1111122 
DISL,ioos:station:DISL:MHPA:1,2009-02-02T02:30:00Z,30.6671,-87.9365,3.16,12.28,1111122 
DISL,ioos:station:DISL:MHPA:1,2009-02-02T03:00:00Z,30.6671,-87.9365,3.046,12.13,1111122 
DISL,ioos:station:DISL:MHPA:1,2009-02-02T03:30:00Z,30.6671,-87.9365,2.964,12.06,1111122 
DISL,ioos:station:DISL:MHPA:1,2009-02-02T04:00:00Z,30.6671,-87.9365,2.895,12.18,1111122 
DISL,ioos:station:DISL:MHPA:1,2009-02-02T04:30:00Z,30.6671,-87.9365,2.811,12.2,1111122 
DISL,ioos:station:DISL:MHPA:1,2009-02-02T05:00:00Z,30.6671,-87.9365,2.79,12.24,1111122 
DISL,ioos:station:DISL:MHPA:1,2009-02-02T05:30:00Z,30.6671,-87.9365,2.767,12.05,1111122 
DISL,ioos:station:DISL:MHPA:1,2009-02-02T06:00:00Z,30.6671,-87.9365,2.758,11.88,1111122 
DISL,ioos:station:DISL:MHPA:1,2009-02-02T06:30:00Z,30.6671,-87.9365,2.723,11.68,1111122 
DISL,ioos:station:DISL:MHPA:1,2009-02-02T07:00:00Z,30.6671,-87.9365,2.726,11.75,1111122 
DISL,ioos:station:DISL:MHPA:1,2009-02-02T07:30:00Z,30.6671,-87.9365,2.749,11.81,1111122 
DISL,ioos:station:DISL:MHPA:1,2009-02-02T08:00:00Z,30.6671,-87.9365,2.817,11.81,1111122 
DISL,ioos:station:DISL:MHPA:1,2009-02-02T08:30:00Z,30.6671,-87.9365,2.801,11.83,1111122 
DISL,ioos:station:DISL:MHPA:1,2009-02-02T09:00:00Z,30.6671,-87.9365,2.82,11.75,1111122 
DISL,ioos:station:DISL:MHPA:1,2009-02-02T09:30:00Z,30.6671,-87.9365,3.02,11.81,1111122 
DISL,ioos:station:DISL:MHPA:1,2009-02-02T10:00:00Z,30.6671,-87.9365,3.019,11.79,1111122 
DISL,ioos:station:DISL:MHPA:1,2009-02-02T10:30:00Z,30.6671,-87.9365,3.028,11.64,1111122 
DISL,ioos:station:DISL:MHPA:1,2009-02-02T11:00:00Z,30.6671,-87.9365,3.168,11.42,1111122 
DISL,ioos:station:DISL:MHPA:1,2009-02-02T11:30:00Z,30.6671,-87.9365,3.239,11.41,1111122 
DISL,ioos:station:DISL:MHPA:1,2009-02-02T12:00:00Z,30.6671,-87.9365,3.286,11.19,1111122 
DISL,ioos:station:DISL:MHPA:1,2009-02-02T12:30:00Z,30.6671,-87.9365,3.389,10.79,1111122 
DISL,ioos:station:DISL:MHPA:1,2009-02-02T13:00:00Z,30.6671,-87.9365,3.457,10.97,1111122 
DISL,ioos:station:DISL:MHPA:1,2009-02-02T13:30:00Z,30.6671,-87.9365,3.556,10.9,1111122 
DISL,ioos:station:DISL:MHPA:1,2009-02-02T14:00:00Z,30.6671,-87.9365,3.505,10.87,1111122 
DISL,ioos:station:DISL:MHPA:1,2009-02-02T14:30:00Z,30.6671,-87.9365,3.447,10.87,1111122 
DISL,ioos:station:DISL:MHPA:1,2009-02-02T15:00:00Z,30.6671,-87.9365,3.52,10.81,1111122 
DISL,ioos:station:DISL:MHPA:1,2009-02-02T15:30:00Z,30.6671,-87.9365,3.486,10.95,1111122 
DISL,ioos:station:DISL:MHPA:1,2009-02-02T16:00:00Z,30.6671,-87.9365,3.565,10.88,1111122 
DISL,ioos:station:DISL:MHPA:1,2009-02-02T16:30:00Z,30.6671,-87.9365,3.673,10.7,1111122 
DISL,ioos:station:DISL:MHPA:1,2009-02-02T17:00:00Z,30.6671,-87.9365,3.751,10.95,1111122 
DISL,ioos:station:DISL:MHPA:1,2009-02-02T17:30:00Z,30.6671,-87.9365,3.718,10.96,1111122 
DISL,ioos:station:DISL:MHPA:1,2009-02-02T18:00:00Z,30.6671,-87.9365,3.657,10.99,1111122 
DISL,ioos:station:DISL:MHPA:1,2009-02-02T18:30:00Z,30.6671,-87.9365,3.708,11.09,1111122 
DISL,ioos:station:DISL:MHPA:1,2009-02-02T19:00:00Z,30.6671,-87.9365,3.637,11.15,1111122 
DISL,ioos:station:DISL:MHPA:1,2009-02-02T19:30:00Z,30.6671,-87.9365,3.496,11.13,1111122 
DISL,ioos:station:DISL:MHPA:1,2009-02-02T20:00:00Z,30.6671,-87.9365,3.629,11.13,1111122 
DISL,ioos:station:DISL:MHPA:1,2009-02-02T20:30:00Z,30.6671,-87.9365,3.37,11.28,1111122 
DISL,ioos:station:DISL:MHPA:1,2009-02-02T21:00:00Z,30.6671,-87.9365,3.244,11.26,1111122 
DISL,ioos:station:DISL:MHPA:1,2009-02-02T21:30:00Z,30.6671,-87.9365,3.278,11.22,1111122 
DISL,ioos:station:DISL:MHPA:1,2009-02-02T22:00:00Z,30.6671,-87.9365,3.127,11.16,1111122 
DISL,ioos:station:DISL:MHPA:1,2009-02-02T22:30:00Z,30.6671,-87.9365,2.873,11.17,1111122 
DISL,ioos:station:DISL:MHPA:1,2009-02-02T23:00:00Z,30.6671,-87.9365,2.755,11.1,1111122 
DISL,ioos:station:DISL:MHPA:1,2009-02-02T23:30:00Z,30.6671,-87.9365,2.696,11.06,1111122 
DISL,ioos:station:DISL:MHPA:1,2009-02-03T00:00:00Z,30.6671,-87.9365,2.6,11.04,1111122 
DISL,ioos:station:DISL:MHPA:1,2009-02-03T00:30:00Z,30.6671,-87.9365,2.504,11.01,1111122 
DISL,ioos:station:DISL:MHPA:1,2009-02-03T01:00:00Z,30.6671,-87.9365,2.434,10.97,1111122 
DISL,ioos:station:DISL:MHPA:1,2009-02-03T01:30:00Z,30.6671,-87.9365,2.386,10.95,1111122 
DISL,ioos:station:DISL:MHPA:1,2009-02-03T02:00:00Z,30.6671,-87.9365,2.33,10.92,1111122 
DISL,ioos:station:DISL:MHPA:1,2009-02-03T02:30:00Z,30.6671,-87.9365,2.267,10.89,1111122 
DISL,ioos:station:DISL:MHPA:1,2009-02-03T03:00:00Z,30.6671,-87.9365,2.183,10.89,1111122 
DISL,ioos:station:DISL:MHPA:1,2009-02-03T03:30:00Z,30.6671,-87.9365,2.054,10.88,1111122 
DISL,ioos:station:DISL:MHPA:1,2009-02-03T04:00:00Z,30.6671,-87.9365,1.922,10.85,1111122 
DISL,ioos:station:DISL:MHPA:1,2009-02-03T04:30:00Z,30.6671,-87.9365,1.824,10.84,1111122 
DISL,ioos:station:DISL:MHPA:1,2009-02-03T05:00:00Z,30.6671,-87.9365,1.755,10.81,1111122 
DISL,ioos:station:DISL:MHPA:1,2009-02-03T05:30:00Z,30.6671,-87.9365,1.697,10.8,1111122 
DISL,ioos:station:DISL:MHPA:1,2009-02-03T06:00:00Z,30.6671,-87.9365,1.678,10.74,1111122 
DISL,ioos:station:DISL:MHPA:1,2009-02-03T06:30:00Z,30.6671,-87.9365,1.692,10.75,1111122 
DISL,ioos:station:DISL:MHPA:1,2009-02-03T07:00:00Z,30.6671,-87.9365,1.696,10.72,1111122 
DISL,ioos:station:DISL:MHPA:1,2009-02-03T07:30:00Z,30.6671,-87.9365,1.669,10.61,1111122 
DISL,ioos:station:DISL:MHPA:1,2009-02-03T08:00:00Z,30.6671,-87.9365,1.628,10.64,1111122 
DISL,ioos:station:DISL:MHPA:1,2009-02-03T08:30:00Z,30.6671,-87.9365,1.576,10.58,1111122 
DISL,ioos:station:DISL:MHPA:1,2009-02-03T09:00:00Z,30.6671,-87.9365,1.552,10.56,1111122 
DISL,ioos:station:DISL:MHPA:1,2009-02-03T09:30:00Z,30.6671,-87.9365,1.536,10.51,1111122 
DISL,ioos:station:DISL:MHPA:1,2009-02-03T10:00:00Z,30.6671,-87.9365,1.551,10.55,1111122 
DISL,ioos:station:DISL:MHPA:1,2009-02-03T10:30:00Z,30.6671,-87.9365,1.596,10.56,1111122 
DISL,ioos:station:DISL:MHPA:1,2009-02-03T11:00:00Z,30.6671,-87.9365,1.652,10.51,1111122 
DISL,ioos:station:DISL:MHPA:1,2009-02-03T11:30:00Z,30.6671,-87.9365,1.725,10.47,1111122 
DISL,ioos:station:DISL:MHPA:1,2009-02-03T12:00:00Z,30.6671,-87.9365,1.785,10.46,1111122 
DISL,ioos:station:DISL:MHPA:1,2009-02-03T12:30:00Z,30.6671,-87.9365,1.851,10.42,1111122 
DISL,ioos:station:DISL:MHPA:1,2009-02-03T13:00:00Z,30.6671,-87.9365,1.921,10.39,1111122 
DISL,ioos:station:DISL:MHPA:1,2009-02-03T13:30:00Z,30.6671,-87.9365,2.007,10.41,1111122 
DISL,ioos:station:DISL:MHPA:1,2009-02-03T14:00:00Z,30.6671,-87.9365,2.128,10.28,1111122 
DISL,ioos:station:DISL:MHPA:1,2009-02-03T14:30:00Z,30.6671,-87.9365,2.292,10.33,1111122 
DISL,ioos:station:DISL:MHPA:1,2009-02-03T15:00:00Z,30.6671,-87.9365,2.456,10.23,1111122 
DISL,ioos:station:DISL:MHPA:1,2009-02-03T15:30:00Z,30.6671,-87.9365,2.65,10.29,1111122 
DISL,ioos:station:DISL:MHPA:1,2009-02-03T16:00:00Z,30.6671,-87.9365,2.817,10.29,1111122 
DISL,ioos:station:DISL:MHPA:1,2009-02-03T16:30:00Z,30.6671,-87.9365,2.969,10.3,1111122 
DISL,ioos:station:DISL:MHPA:1,2009-02-03T17:00:00Z,30.6671,-87.9365,3.114,10.27,1111122 
DISL,ioos:station:DISL:MHPA:1,2009-02-03T17:30:00Z,30.6671,-87.9365,3.209,10.73,1111122 
DISL,ioos:station:DISL:MHPA:1,2009-02-03T18:00:00Z,30.6671,-87.9365,3.328,10.72,1111122 
DISL,ioos:station:DISL:MHPA:1,2009-02-03T18:30:00Z,30.6671,-87.9365,3.473,10.69,1111122 
DISL,ioos:station:DISL:MHPA:1,2009-02-03T19:00:00Z,30.6671,-87.9365,3.606,10.77,1111122 
DISL,ioos:station:DISL:MHPA:1,2009-02-03T19:30:00Z,30.6671,-87.9365,3.911,11.08,1111122 
DISL,ioos:station:DISL:MHPA:1,2009-02-03T20:00:00Z,30.6671,-87.9365,4.068,12.15,1111122 
DISL,ioos:station:DISL:MHPA:1,2009-02-03T20:30:00Z,30.6671,-87.9365,4.214,13.29,1111122 
DISL,ioos:station:DISL:MHPA:1,2009-02-03T21:00:00Z,30.6671,-87.9365,4.295,13.37,1111122 
DISL,ioos:station:DISL:MHPA:1,2009-02-03T21:30:00Z,30.6671,-87.9365,4.286,13.04,1111122 
DISL,ioos:station:DISL:MHPA:1,2009-02-03T22:00:00Z,30.6671,-87.9365,4.389,13.04,1111122 
DISL,ioos:station:DISL:MHPA:1,2009-02-03T22:30:00Z,30.6671,-87.9365,4.347,12.56,1111122 
DISL,ioos:station:DISL:MHPA:1,2009-02-03T23:00:00Z,30.6671,-87.9365,4.37,12.54,1111122 
DISL,ioos:station:DISL:MHPA:1,2009-02-03T23:30:00Z,30.6671,-87.9365,4.281,11.92,1111122 
DISL,ioos:station:DISL:MHPA:1,2009-02-04T00:00:00Z,30.6671,-87.9365,4.234,12.0,1111122 
DISL,ioos:station:DISL:MHPA:1,2009-02-04T00:30:00Z,30.6671,-87.9365,4.182,12.11,1111122 
DISL,ioos:station:DISL:MHPA:1,2009-02-04T01:00:00Z,30.6671,-87.9365,4.096,11.77,1111122 
DISL,ioos:station:DISL:MHPA:1,2009-02-04T01:30:00Z,30.6671,-87.9365,3.996,11.72,1111122 
DISL,ioos:station:DISL:MHPA:1,2009-02-04T02:00:00Z,30.6671,-87.9365,3.882,11.77,1111122 
DISL,ioos:station:DISL:MHPA:1,2009-02-04T02:30:00Z,30.6671,-87.9365,3.725,11.8,1111122 
DISL,ioos:station:DISL:MHPA:1,2009-02-04T03:00:00Z,30.6671,-87.9365,3.56,11.75,1111122 
DISL,ioos:station:DISL:MHPA:1,2009-02-04T03:30:00Z,30.6671,-87.9365,3.322,11.73,1111122 
DISL,ioos:station:DISL:MHPA:1,2009-02-04T04:00:00Z,30.6671,-87.9365,3.073,11.72,1111122 
DISL,ioos:station:DISL:MHPA:1,2009-02-04T04:30:00Z,30.6671,-87.9365,2.861,11.66,1111122 
DISL,ioos:station:DISL:MHPA:1,2009-02-04T05:00:00Z,30.6671,-87.9365,2.687,11.62,1111122 
DISL,ioos:station:DISL:MHPA:1,2009-02-04T05:30:00Z,30.6671,-87.9365,2.492,11.61,1111122 
DISL,ioos:station:DISL:MHPA:1,2009-02-04T06:00:00Z,30.6671,-87.9365,2.309,11.65,1111122 
DISL,ioos:station:DISL:MHPA:1,2009-02-04T06:30:00Z,30.6671,-87.9365,2.138,11.59,1111122 
DISL,ioos:station:DISL:MHPA:1,2009-02-04T07:00:00Z,30.6671,-87.9365,2.025,11.48,1111122 
DISL,ioos:station:DISL:MHPA:1,2009-02-04T07:30:00Z,30.6671,-87.9365,1.918,11.46,1111122 
DISL,ioos:station:DISL:MHPA:1,2009-02-04T08:00:00Z,30.6671,-87.9365,1.781,11.48,1111122 
DISL,ioos:station:DISL:MHPA:1,2009-02-04T08:30:00Z,30.6671,-87.9365,1.658,11.51,1111122 
DISL,ioos:station:DISL:MHPA:1,2009-02-04T09:00:00Z,30.6671,-87.9365,1.552,11.47,1111122 
DISL,ioos:station:DISL:MHPA:1,2009-02-04T09:30:00Z,30.6671,-87.9365,1.459,11.51,1111122 
DISL,ioos:station:DISL:MHPA:1,2009-02-04T10:00:00Z,30.6671,-87.9365,1.383,11.53,1111122 
DISL,ioos:station:DISL:MHPA:1,2009-02-04T10:30:00Z,30.6671,-87.9365,1.311,11.52,1111122 
DISL,ioos:station:DISL:MHPA:1,2009-02-04T11:00:00Z,30.6671,-87.9365,1.257,11.52,1111122 
DISL,ioos:station:DISL:MHPA:1,2009-02-04T11:30:00Z,30.6671,-87.9365,1.223,11.49,1111122 
DISL,ioos:station:DISL:MHPA:1,2009-02-04T12:00:00Z,30.6671,-87.9365,1.2,11.48,1111122 
DISL,ioos:station:DISL:MHPA:1,2009-02-04T12:30:00Z,30.6671,-87.9365,1.182,11.52,1111122 
DISL,ioos:station:DISL:MHPA:1,2009-02-04T13:00:00Z,30.6671,-87.9365,1.168,11.53,1111122 
DISL,ioos:station:DISL:MHPA:1,2009-02-04T13:30:00Z,30.6671,-87.9365,1.154,11.53,1111122 
DISL,ioos:station:DISL:MHPA:1,2009-02-04T14:00:00Z,30.6671,-87.9365,1.148,11.5,1111122 
DISL,ioos:station:DISL:MHPA:1,2009-02-04T14:30:00Z,30.6671,-87.9365,1.134,11.44,1111122 
DISL,ioos:station:DISL:MHPA:1,2009-02-04T15:00:00Z,30.6671,-87.9365,1.122,11.47,1111122 
DISL,ioos:station:DISL:MHPA:1,2009-02-04T15:30:00Z,30.6671,-87.9365,1.115,11.5,1111122 
DISL,ioos:station:DISL:MHPA:1,2009-02-04T16:00:00Z,30.6671,-87.9365,1.107,11.55,1111122 
DISL,ioos:station:DISL:MHPA:1,2009-02-04T16:30:00Z,30.6671,-87.9365,1.1,11.56,1111122 
DISL,ioos:station:DISL:MHPA:1,2009-02-04T17:00:00Z,30.6671,-87.9365,1.093,11.6,1111122 
DISL,ioos:station:DISL:MHPA:1,2009-02-04T17:30:00Z,30.6671,-87.9365,1.091,11.61,1111122 
DISL,ioos:station:DISL:MHPA:1,2009-02-04T18:00:00Z,30.6671,-87.9365,1.089,11.65,1111122 
DISL,ioos:station:DISL:MHPA:1,2009-02-04T18:30:00Z,30.6671,-87.9365,1.103,11.66,1111122 
DISL,ioos:station:DISL:MHPA:1,2009-02-04T19:00:00Z,30.6671,-87.9365,1.197,11.83,1111122 
DISL,ioos:station:DISL:MHPA:1,2009-02-04T19:30:00Z,30.6671,-87.9365,1.454,11.81,1111122 
DISL,ioos:station:DISL:MHPA:1,2009-02-04T20:00:00Z,30.6671,-87.9365,1.81,11.76,1111122 
DISL,ioos:station:DISL:MHPA:1,2009-02-04T20:30:00Z,30.6671,-87.9365,2.091,11.77,1111122 
DISL,ioos:station:DISL:MHPA:1,2009-02-04T21:00:00Z,30.6671,-87.9365,2.281,11.81,1111122 
DISL,ioos:station:DISL:MHPA:1,2009-02-04T21:30:00Z,30.6671,-87.9365,2.446,11.86,1111122 
DISL,ioos:station:DISL:MHPA:1,2009-02-04T22:00:00Z,30.6671,-87.9365,2.591,11.94,1111122 
DISL,ioos:station:DISL:MHPA:1,2009-02-04T22:30:00Z,30.6671,-87.9365,2.682,12.32,1111122 
DISL,ioos:station:DISL:MHPA:1,2009-02-04T23:00:00Z,30.6671,-87.9365,2.779,12.86,1111122 
DISL,ioos:station:DISL:MHPA:1,2009-02-04T23:30:00Z,30.6671,-87.9365,2.908,13.22,1111122 
DISL,ioos:station:DISL:MHPA:1,2009-02-05T00:00:00Z,30.6671,-87.9365,2.961,13.39,1111122 
DISL,ioos:station:DISL:MHPA:1,2009-02-05T00:30:00Z,30.6671,-87.9365,2.963,13.04,1111122 
DISL,ioos:station:DISL:MHPA:1,2009-02-05T01:00:00Z,30.6671,-87.9365,3.037,12.89,1111122 
DISL,ioos:station:DISL:MHPA:1,2009-02-05T01:30:00Z,30.6671,-87.9365,3.065,13.24,1111122 
DISL,ioos:station:DISL:MHPA:1,2009-02-05T02:00:00Z,30.6671,-87.9365,3.035,13.33,1111122 
DISL,ioos:station:DISL:MHPA:1,2009-02-05T02:30:00Z,30.6671,-87.9365,3.051,13.19,1111122 
DISL,ioos:station:DISL:MHPA:1,2009-02-05T03:00:00Z,30.6671,-87.9365,2.98,12.96,1111122 
DISL,ioos:station:DISL:MHPA:1,2009-02-05T03:30:00Z,30.6671,-87.9365,2.842,12.81,1111122 
DISL,ioos:station:DISL:MHPA:1,2009-02-05T04:00:00Z,30.6671,-87.9365,2.74,12.78,1111122 
DISL,ioos:station:DISL:MHPA:1,2009-02-05T04:30:00Z,30.6671,-87.9365,2.668,12.71,1111122 
DISL,ioos:station:DISL:MHPA:1,2009-02-05T05:00:00Z,30.6671,-87.9365,2.535,12.43,1111122 
DISL,ioos:station:DISL:MHPA:1,2009-02-05T05:30:00Z,30.6671,-87.9365,2.4,12.23,1111122 
DISL,ioos:station:DISL:MHPA:1,2009-02-05T06:00:00Z,30.6671,-87.9365,2.272,12.03,1111122 
DISL,ioos:station:DISL:MHPA:1,2009-02-05T06:30:00Z,30.6671,-87.9365,2.154,11.69,1111122 
DISL,ioos:station:DISL:MHPA:1,2009-02-05T07:00:00Z,30.6671,-87.9365,2.037,11.58,1111122 
DISL,ioos:station:DISL:MHPA:1,2009-02-05T07:30:00Z,30.6671,-87.9365,1.919,11.23,1111122 
DISL,ioos:station:DISL:MHPA:1,2009-02-05T08:00:00Z,30.6671,-87.9365,1.803,11.49,1111122 
DISL,ioos:station:DISL:MHPA:1,2009-02-05T08:30:00Z,30.6671,-87.9365,1.697,11.39,1111122 
DISL,ioos:station:DISL:MHPA:1,2009-02-05T09:00:00Z,30.6671,-87.9365,1.611,11.51,1111122 
DISL,ioos:station:DISL:MHPA:1,2009-02-05T09:30:00Z,30.6671,-87.9365,1.532,11.45,1111122 
DISL,ioos:station:DISL:MHPA:1,2009-02-05T10:00:00Z,30.6671,-87.9365,1.458,11.18,1111122 
DISL,ioos:station:DISL:MHPA:1,2009-02-05T10:30:00Z,30.6671,-87.9365,1.391,11.38,1111122 
DISL,ioos:station:DISL:MHPA:1,2009-02-05T11:00:00Z,30.6671,-87.9365,1.337,11.15,1111122 
DISL,ioos:station:DISL:MHPA:1,2009-02-05T11:30:00Z,30.6671,-87.9365,1.295,11.02,1111122 
DISL,ioos:station:DISL:MHPA:1,2009-02-05T12:00:00Z,30.6671,-87.9365,1.264,10.72,1111122 
DISL,ioos:station:DISL:MHPA:1,2009-02-05T12:30:00Z,30.6671,-87.9365,1.24,10.31,1111122 
DISL,ioos:station:DISL:MHPA:1,2009-02-05T13:00:00Z,30.6671,-87.9365,1.222,9.78,1111122 
DISL,ioos:station:DISL:MHPA:1,2009-02-05T13:30:00Z,30.6671,-87.9365,1.207,10.27,1111122 
DISL,ioos:station:DISL:MHPA:1,2009-02-05T14:00:00Z,30.6671,-87.9365,1.195,9.95,1111122 
DISL,ioos:station:DISL:MHPA:1,2009-02-05T14:30:00Z,30.6671,-87.9365,1.184,11.03,1111122 
DISL,ioos:station:DISL:MHPA:1,2009-02-05T15:00:00Z,30.6671,-87.9365,1.176,11.25,1111122 
DISL,ioos:station:DISL:MHPA:1,2009-02-05T15:30:00Z,30.6671,-87.9365,1.166,11.71,1111122 
DISL,ioos:station:DISL:MHPA:1,2009-02-05T16:00:00Z,30.6671,-87.9365,1.16,11.96,1111122 
DISL,ioos:station:DISL:MHPA:1,2009-02-05T16:30:00Z,30.6671,-87.9365,1.154,11.67,1111122 
DISL,ioos:station:DISL:MHPA:1,2009-02-05T17:00:00Z,30.6671,-87.9365,1.155,11.62,1111122 
DISL,ioos:station:DISL:MHPA:1,2009-02-05T17:30:00Z,30.6671,-87.9365,1.217,11.88,1111122 
DISL,ioos:station:DISL:MHPA:1,2009-02-05T18:00:00Z,30.6671,-87.9365,1.437,11.88,1111122 
DISL,ioos:station:DISL:MHPA:1,2009-02-05T18:30:00Z,30.6671,-87.9365,1.737,12.13,1111122 
DISL,ioos:station:DISL:MHPA:1,2009-02-05T19:00:00Z,30.6671,-87.9365,1.972,12.19,1111122 
DISL,ioos:station:DISL:MHPA:1,2009-02-05T19:30:00Z,30.6671,-87.9365,2.126,12.78,1111122 
DISL,ioos:station:DISL:MHPA:1,2009-02-05T20:00:00Z,30.6671,-87.9365,2.245,12.85,1111122 
DISL,ioos:station:DISL:MHPA:1,2009-02-05T20:30:00Z,30.6671,-87.9365,2.379,12.83,1111122 
DISL,ioos:station:DISL:MHPA:1,2009-02-05T21:00:00Z,30.6671,-87.9365,2.521,12.9,1111122 
DISL,ioos:station:DISL:MHPA:1,2009-02-05T21:30:00Z,30.6671,-87.9365,2.686,13.53,1111122 
DISL,ioos:station:DISL:MHPA:1,2009-02-05T22:00:00Z,30.6671,-87.9365,2.855,13.6,1111122 
DISL,ioos:station:DISL:MHPA:1,2009-02-05T22:30:00Z,30.6671,-87.9365,3.064,13.63,1111122 
DISL,ioos:station:DISL:MHPA:1,2009-02-05T23:00:00Z,30.6671,-87.9365,3.254,13.58,1111122 
DISL,ioos:station:DISL:MHPA:1,2009-02-05T23:30:00Z,30.6671,-87.9365,3.344,14.22,1111122 
DISL,ioos:station:DISL:MHPA:1,2009-02-06T00:00:00Z,30.6671,-87.9365,3.483,14.34,1111122 
DISL,ioos:station:DISL:MHPA:1,2009-02-06T00:30:00Z,30.6671,-87.9365,3.581,14.24,1111122 
DISL,ioos:station:DISL:MHPA:1,2009-02-06T01:00:00Z,30.6671,-87.9365,3.678,14.26,1111122 
DISL,ioos:station:DISL:MHPA:1,2009-02-06T01:30:00Z,30.6671,-87.9365,3.727,14.0,1111122 
DISL,ioos:station:DISL:MHPA:1,2009-02-06T02:00:00Z,30.6671,-87.9365,3.749,14.0,1111122 
DISL,ioos:station:DISL:MHPA:1,2009-02-06T02:30:00Z,30.6671,-87.9365,3.778,13.82,1111122 
DISL,ioos:station:DISL:MHPA:1,2009-02-06T03:00:00Z,30.6671,-87.9365,3.833,13.49,1111122 
DISL,ioos:station:DISL:MHPA:1,2009-02-06T03:30:00Z,30.6671,-87.9365,3.836,13.1,1111122 
DISL,ioos:station:DISL:MHPA:1,2009-02-06T04:00:00Z,30.6671,-87.9365,3.772,12.76,1111122 
DISL,ioos:station:DISL:MHPA:1,2009-02-06T04:30:00Z,30.6671,-87.9365,3.716,12.41,1111122 
DISL,ioos:station:DISL:MHPA:1,2009-02-06T05:00:00Z,30.6671,-87.9365,3.627,12.73,1111122 
DISL,ioos:station:DISL:MHPA:1,2009-02-06T05:30:00Z,30.6671,-87.9365,3.493,12.91,1111122 
DISL,ioos:station:DISL:MHPA:1,2009-02-06T06:00:00Z,30.6671,-87.9365,3.328,12.98,1111122 
DISL,ioos:station:DISL:MHPA:1,2009-02-06T06:30:00Z,30.6671,-87.9365,3.173,12.53,1111122 
DISL,ioos:station:DISL:MHPA:1,2009-02-06T07:00:00Z,30.6671,-87.9365,3.017,12.39,1111122 
DISL,ioos:station:DISL:MHPA:1,2009-02-06T07:30:00Z,30.6671,-87.9365,2.867,12.55,1111122 
DISL,ioos:station:DISL:MHPA:1,2009-02-06T08:00:00Z,30.6671,-87.9365,2.711,12.32,1111122 
DISL,ioos:station:DISL:MHPA:1,2009-02-06T08:30:00Z,30.6671,-87.9365,2.555,12.03,1111122 
DISL,ioos:station:DISL:MHPA:1,2009-02-06T09:00:00Z,30.6671,-87.9365,2.439,12.27,1111122 
DISL,ioos:station:DISL:MHPA:1,2009-02-06T09:30:00Z,30.6671,-87.9365,2.333,12.16,1111122 
DISL,ioos:station:DISL:MHPA:1,2009-02-06T10:00:00Z,30.6671,-87.9365,2.228,12.48,1111122 
DISL,ioos:station:DISL:MHPA:1,2009-02-06T10:30:00Z,30.6671,-87.9365,2.12,12.57,1111122 
DISL,ioos:station:DISL:MHPA:1,2009-02-06T11:00:00Z,30.6671,-87.9365,2.025,12.35,1111122 
DISL,ioos:station:DISL:MHPA:1,2009-02-06T11:30:00Z,30.6671,-87.9365,1.937,12.27,1111122 
DISL,ioos:station:DISL:MHPA:1,2009-02-06T12:00:00Z,30.6671,-87.9365,1.852,11.7,1111122 
DISL,ioos:station:DISL:MHPA:1,2009-02-06T12:30:00Z,30.6671,-87.9365,1.768,11.21,1111122 
DISL,ioos:station:DISL:MHPA:1,2009-02-06T13:00:00Z,30.6671,-87.9365,1.689,11.53,1111122 
DISL,ioos:station:DISL:MHPA:1,2009-02-06T13:30:00Z,30.6671,-87.9365,1.615,11.82,1111122 
DISL,ioos:station:DISL:MHPA:1,2009-02-06T14:00:00Z,30.6671,-87.9365,1.553,11.95,1111122 